Location: Dodgeville, WI 53533, USA
(43.0344°N, 90.0900°W)
Time: 08:49:06
(UTC-06:00)

N. Korean satellite - Visible Passes

Search period start: 24 January 2021 00:00
Search period end: 03 February 2021 00:00
Orbit: 452 x 502 km, 97.2° (Epoch: 23 January)

Date Brightness Start Highest point End Pass type
(mag) Time Alt. Az. Time Alt. Az. Time Alt. Az.
24 Jan 6.4 05:30:00 10° NNE 05:33:28 85° E 05:36:53 10° SSW visible
24 Jan 9.8 17:40:06 10° SW 17:42:22 16° W 17:44:36 10° NW visible
25 Jan 8.0 05:03:38 10° NNE 05:06:51 35° E 05:10:00 10° SSE visible
25 Jan 8.2 06:38:01 10° NW 06:39:50 14° WNW 06:41:39 10° W visible
26 Jan 9.4 04:37:49 10° NE 04:40:06 17° E 04:42:22 10° SE visible
26 Jan 7.3 06:10:30 10° NNW 06:13:28 27° WNW 06:16:23 10° SW visible
27 Jan 6.3 05:43:34 10° N 05:46:59 61° WNW 05:50:20 10° SSW visible
27 Jan 10.4 17:55:17 10° WSW 17:56:01 10° W 17:56:46 10° WNW visible
28 Jan 7.1 05:17:00 10° NNE 05:20:24 55° E 05:23:44 10° S visible
29 Jan 8.8 04:50:50 10° NE 04:53:42 24° E 04:56:31 10° SSE visible
29 Jan 7.8 06:24:23 10° NNW 06:26:52 19° WNW 06:29:20 10° WSW visible
30 Jan 9.9 04:25:40 10° ENE 04:26:54 11° E 04:28:07 10° ESE visible
30 Jan 6.8 05:57:12 10° N 06:00:25 39° WNW 06:03:37 10° SW visible
31 Jan 6.3 05:30:26 10° NNE 05:33:53 87° ESE 05:37:17 10° SSW visible
31 Jan 9.9 17:40:42 10° SW 17:42:50 15° W 17:44:56 10° NW visible
01 Feb 8.0 05:04:02 10° NNE 05:07:14 36° E 05:10:23 10° SSE visible
01 Feb 8.2 06:38:30 10° NW 06:40:14 13° WNW 06:41:56 10° W visible
02 Feb 9.4 04:38:11 10° NE 04:40:28 17° E 04:42:46 10° SE visible
02 Feb 7.4 06:10:55 10° NNW 06:13:50 26° WNW 06:16:43 10° SW visible
